Location: Bacea
(45.9500°N, 22.6667°E)
Time: 03:32:53
(UTC+00:00)

Cosmos 2263 Rocket - Pass Details

Date: 05 June 2022
Orbit: 825 x 847 km, 71.0° (Epoch: 04 July)

Event Time Altitude Azimuth Distance (km) Brightness Sun altitude
Rises 18:51:49 0° 324° (NW) 3,375 7.4 -5.8°
Reaches altitude 10° 18:54:35 10° 312° (NW) 2,435 6.5 -6.1°
Maximum altitude 18:59:09 27° 257° (WSW) 1,543 4.0 -6.7°
Drops below altitude 10° 19:03:43 10° 201° (SSW) 2,419 4.4 -7.3°
Sets 19:06:28 0° 190° (S) 3,348 5.0 -7.7°
